Location: Recife
(8.0585°S, 34.8848°W)
Time: 10:43:29
(UTC-03:00)

Vanguard 2 Rocket - Pass Details

Date: 23 April 2026
Orbit: 553 x 3286 km, 32.9° (Epoch: 8 May)

Event Time Altitude Azimuth Distance (km) Brightness Sun altitude
Rises 16:37:01 0° 284° (WNW) 7,205 14.1 8.1°
Reaches altitude 10° 16:49:02 10° 315° (NW) 5,711 12.1 5.2°
Maximum altitude 16:52:25 11° 326° (NNW) 5,429 11.7 4.4°
Drops below altitude 10° 16:55:36 10° 338° (NNW) 5,261 11.3 3.6°
Sets 17:04:35 0° 13° (NNE) 5,447 10.9 1.4°
